[[{"header":{"parameterUnit":"m.s-1","parameterCategory":1,"la1":30.2991,"la2":30.254,"lo1":-89.0895,"lo2":-89.0444,"dy":0.0017,"dx":0.0017,"nx":28,"ny":28,"refTime":"2025-06-18T03:00:00:Z","depth":0,"parameterNumber":2,"parameterNumberName":"U-component_of_WINDS"},"data":[0,0,0,0,0,0,0,0,0,0,0,0,0,0,0,0,0,0,0,0,0,0,0,0,0,0,0,0,0,0,0,0,0,0,0,0,0,0,0,0,0,0,0,0,0,0,0,0,0,0,0,0,0,0,0,0,0,0,4.7103,4.7105,0,4.7333,4.7335,4.7338,4.7362,4.736,4.7358,4.7355,4.7576,4.7583,4.7591,0,0,0,0,0,0,0,0,0,0,0,0,0,4.6665,4.6673,4.7102,4.7105,4.7108,4.7332,4.7335,4.7338,4.7363,4.736,4.7357,4.7354,4.7573,4.7582,4.7592,0,0,0,0,0,0,0,0,0,0,0,0,0,4.687,4.6675,4.7102,4.7148,4.7154,4.7332,4.7336,4.7339,4.7363,4.736,4.7356,4.7353,4.757,4.7581,4.7593,4.7736,0,0,4.763,4.7635,0,0,0,0,0,0,0,0,4.6859,4.6886,4.7138,4.7145,4.7152,4.7316,4.7262,4.7472,4.7364,4.7283,4.7355,4.7351,4.7491,4.7509,4.7559,4.7747,4.7756,4.7631,4.7638,4.7643,4.7647,0,0,0,0,0,0,0,4.6845,4.6877,4.7193,4.7141,4.715,4.715,4.7176,4.7302,4.7403,4.729,4.7292,4.732,4.7494,4.7548,4.7565,4.7759,4.7631,4.7641,4.7649,4.7653,4.8068,4.8072,0,0,0,0,0,0,4.6824,4.6865,4.7186,4.72,4.6995,4.7161,4.719,4.7266,4.7402,4.742,4.7323,4.732,4.7529,4.7551,4.7572,4.7745,4.7643,4.7655,4.7661,4.8064,4.8069,4.8073,0,0,0,0,0,0,4.6815,4.6853,4.7176,4.7033,4.7075,4.7172,4.7258,4.7273,4.7327,4.7427,4.7443,4.7361,4.7527,4.7555,4.7695,4.7753,4.766,4.7671,4.806,4.8066,4.8071,4.8094,0,0,0,0,0,0,4.6802,4.6849,4.691,4.7035,4.7082,4.7301,4.7262,4.728,4.7349,4.7348,4.7467,4.7483,4.7526,4.7677,4.7707,4.7768,4.768,4.8055,4.8062,4.8069,4.8088,4.8099,4.8109,0,0,0,0,0,4.6787,4.6905,4.6913,4.6951,4.7161,4.7305,4.7331,4.7384,4.7354,4.7412,4.7475,4.7479,4.7742,4.7691,4.7725,4.779,4.8052,4.806,4.8069,4.8083,4.8097,4.8109,0,0,0,0,0,0,4.678,4.6922,4.6932,4.7096,4.7189,4.7309,4.7384,4.7397,4.7497,4.7491,4.7547,4.7573,4.7709,4.7764,4.7704,4.7932,4.7893,4.7909,4.7892,4.7906,4.7917,4.79,4.769,0,0,0,0,0,4.6798,4.6909,4.7025,4.7158,4.7204,4.7286,4.7351,4.7383,4.7479,4.7517,4.759,4.7679,4.778,4.7846,4.7946,4.8096,4.8118,4.8157,4.8167,4.8175,4.8188,4.8265,4.8282,4.8101,4.8101,4.8101,0,0,4.6836,4.6927,4.6993,4.7159,4.7234,4.7341,4.7319,4.7434,4.7512,4.7532,4.767,4.7726,4.7827,4.7971,4.8038,4.8021,4.8242,4.8186,4.8192,4.82,4.8275,4.8292,4.8307,4.8107,4.8106,4.8105,0,0,4.6959,4.7042,4.716,4.7236,4.7351,4.7404,4.7432,4.755,4.7589,4.7728,4.7744,4.7834,4.8011,4.8081,4.814,4.8283,4.8288,4.8314,4.8368,4.8442,4.8456,4.8469,4.8516,4.8533,4.8326,4.8326,4.8326,0,4.699,4.7159,4.7217,4.7332,4.7401,4.7428,4.7543,4.7612,4.7752,4.7796,4.7776,4.7994,4.8065,4.8223,4.8258,4.8306,4.8334,4.83,4.8451,4.8464,4.8477,4.8522,4.854,4.8328,4.8328,4.8328,4.8327,0,4.7188,4.7303,4.7383,4.7522,4.76,4.7714,4.7783,4.7853,4.7877,4.793,4.8066,4.8152,4.8267,4.8307,4.8331,4.8466,4.8452,4.8441,4.8401,4.8495,4.8538,4.8556,4.8331,4.833,4.833,4.8329,0,0,4.7316,4.7483,4.7511,4.7572,4.7699,4.7787,4.7898,4.8015,4.8072,4.8166,4.8257,4.8403,4.8392,4.8459,4.8489,4.8555,4.8657,4.8535,4.8538,4.8552,4.8806,4.8812,4.8832,4.8662,4.8665,4.8668,4.8796,0,4.7451,4.7658,4.7711,4.7883,4.7987,4.8011,4.8107,4.8191,4.8242,4.8332,4.8385,4.8487,4.8468,4.8507,4.8574,4.8631,4.8709,4.8623,4.8741,4.8744,4.8713,4.8855,4.8863,4.898,4.8814,4.8817,4.8819,0,4.7638,4.7739,4.7923,4.8032,4.8077,4.8164,4.8272,4.836,4.8453,4.8485,4.8557,4.8581,4.869,4.8646,4.8794,4.8735,4.8785,4.882,4.8825,4.8837,4.8786,4.8867,4.9019,4.9035,4.8847,4.8845,4.8843,0,4.7707,4.7889,4.8022,4.8073,4.8206,4.8264,4.8321,4.8412,4.8476,4.8568,4.861,4.8712,4.8767,4.8842,4.889,4.8854,4.9032,4.8993,4.9056,4.9055,4.9092,4.9088,4.9251,4.9128,4.9128,4.9128,4.9127,0,4.7852,4.7962,4.8055,4.8136,4.8258,4.8314,4.8431,4.8487,4.8566,4.8653,4.8679,4.8759,4.8818,4.8904,4.8941,4.9055,4.908,4.9104,4.9112,4.9101,4.9097,4.9134,4.9125,4.9132,4.9131,4.913,4.913,0,4.7951,4.8018,4.8163,4.8276,4.8307,4.8391,4.8484,4.856,4.861,4.872,4.8748,4.8825,4.8927,4.8983,4.911,4.9134,4.926,4.9265,4.9231,4.9233,4.9292,4.9284,4.9482,4.9508,4.937,4.9371,4.9372,0,4.8038,4.8124,4.8246,4.8308,4.8367,4.8467,4.8534,4.859,4.8657,4.8767,4.8827,4.8932,4.9019,4.9179,4.9242,4.9338,4.9343,4.9406,4.9358,4.9342,4.934,4.9333,4.9339,4.9413,4.9415,4.9416,4.9417,0,4.8183,4.8211,4.831,4.8418,4.8498,4.8585,4.867,4.8718,4.8786,4.8859,4.8966,4.9033,4.9163,4.9264,4.9364,4.9415,4.9425,4.9431,4.945,4.9439,4.9413,4.9424,4.925,4.9426,4.9425,4.9425,4.9424,4.9424,4.8277,4.8353,4.845,4.8556,4.8626,4.8705,4.8781,4.884,4.8932,4.9046,4.9071,4.9182,4.9266,4.9402,4.9455,4.9538,4.9525,4.9554,4.956,4.9566,4.9566,4.9402,4.9557,4.9557,4.9556,4.9556,4.9556,0,4.8421,4.8484,4.8581,4.8701,4.8783,4.879,4.8883,4.8949,4.9048,4.9128,4.9213,4.9332,4.9429,4.9499,4.9596,4.9649,4.9655,4.9672,4.9667,4.9678,4.9574,4.9547,4.9665,4.9665,4.9665,4.9665,4.9665,4.9665,4.8505,4.8632,4.8671,4.8829,4.889,4.9003,4.9055,4.9124,4.9188,4.9322,4.9404,4.945,4.9524,4.9626,4.9712,4.973,4.9762,4.9778,4.9795,4.9697,4.9686,4.9674,4.9649,4.9786,4.9786,4.9891,4.9892,4.9893]},{"header":{"parameterUnit":"m.s-1","parameterCategory":1,"la1":30.2991,"la2":30.254,"lo1":-89.0895,"lo2":-89.0444,"dy":0.0017,"dx":0.0017,"nx":28,"ny":28,"refTime":"2025-06-18T03:00:00:Z","depth":0,"parameterNumber":3,"parameterNumberName":"V-component_of_WINDS"},"data":[0,0,0,0,0,0,0,0,0,0,0,0,0,0,0,0,0,0,0,0,0,0,0,0,0,0,0,0,0,0,0,0,0,0,0,0,0,0,0,0,0,0,0,0,0,0,0,0,0,0,0,0,0,0,0,0,0,0,0.9725,0.973,0,1.0127,1.0131,1.0136,1.034,1.034,1.034,1.0341,1.0757,1.0768,1.0778,0,0,0,0,0,0,0,0,0,0,0,0,0,0.9139,0.9149,0.9725,0.973,0.9735,1.0126,1.0131,1.0137,1.034,1.034,1.0341,1.0341,1.0753,1.0766,1.0779,0,0,0,0,0,0,0,0,0,0,0,0,0,0.9452,0.9152,0.9724,0.9883,0.9902,1.0125,1.0132,1.0139,1.034,1.034,1.0341,1.0341,1.0749,1.0765,1.0781,1.0878,0,0,1.0831,1.0839,0,0,0,0,0,0,0,0,0.9434,0.9474,0.9855,0.9873,0.9894,1.0183,1.0078,1.0387,1.034,1.0174,1.0341,1.0341,1.0566,1.0598,1.0673,1.0898,1.0916,1.0833,1.0843,1.085,1.0855,0,0,0,0,0,0,0,0.9412,0.9458,0.9884,0.986,0.9884,0.9936,0.9981,1.0137,1.0364,1.0188,1.0204,1.0248,1.0577,1.0656,1.0684,1.0922,1.0832,1.0847,1.0857,1.0864,1.1247,1.1247,0,0,0,0,0,0,0.9364,0.9438,0.9872,0.9896,0.966,0.9947,0.9997,1.009,1.0363,1.0405,1.0248,1.0257,1.0628,1.0665,1.0699,1.0833,1.085,1.0865,1.0875,1.1246,1.1247,1.1247,0,0,0,0,0,0,0.9351,0.9401,0.9855,0.9672,0.9733,0.9956,1.006,1.0098,1.0178,1.0408,1.045,1.0287,1.063,1.0676,1.0832,1.085,1.0873,1.0887,1.1246,1.1247,1.1247,1.1097,0,0,0,0,0,0,0.9333,0.9395,0.9433,0.9671,0.9742,0.998,1.0061,1.0106,1.0205,1.022,1.0456,1.0495,1.0634,1.0806,1.0848,1.0873,1.09,1.1246,1.1246,1.1247,1.1102,1.1093,1.1085,0,0,0,0,0,0.9311,0.9376,0.9434,0.9485,0.9795,0.998,1.0021,1.0178,1.0205,1.0247,1.0394,1.0488,1.0839,1.0821,1.087,1.0899,1.1245,1.1246,1.1247,1.1106,1.1095,1.1085,0,0,0,0,0,0,0.9138,0.9411,0.9478,0.9621,0.9775,1.0014,1.0072,1.0161,1.0313,1.0321,1.051,1.0561,1.07,1.0815,1.0789,1.1007,1.1052,1.1062,1.0928,1.0919,1.0911,1.0882,1.0914,0,0,0,0,0,0.9115,0.9241,0.9474,0.9578,0.9651,0.9847,0.9934,1.004,1.0209,1.0276,1.0436,1.0597,1.0744,1.0837,1.0986,1.1118,1.1173,1.1162,1.1153,1.1145,1.1154,1.1233,1.1232,1.125,1.125,1.125,0,0,0.9073,0.9237,0.9306,0.9547,0.968,0.9807,0.9901,1.0033,1.0131,1.0297,1.0454,1.0575,1.0768,1.0912,1.0984,1.1013,1.116,1.1146,1.1138,1.1152,1.1234,1.1232,1.123,1.125,1.125,1.125,0,0,0.906,0.9195,0.9298,0.9427,0.9625,0.9755,0.9778,1.0003,1.009,1.0249,1.0377,1.0496,1.0745,1.0877,1.0977,1.101,1.1102,1.1052,1.101,1.1085,1.1084,1.1083,1.1097,1.11,1.1059,1.1058,1.1058,0,0.8983,0.9179,0.9339,0.9464,0.9567,0.9719,0.9825,0.9944,1.018,1.0249,1.0276,1.0592,1.0732,1.091,1.0917,1.0992,1.1027,1.1029,1.107,1.1072,1.1074,1.109,1.1094,1.1051,1.1052,1.1053,1.1054,0,0.9074,0.9208,0.9267,0.9489,0.9598,0.9712,0.9891,0.9983,1.0078,1.0204,1.0365,1.0537,1.0723,1.0773,1.0868,1.0964,1.0976,1.1034,1.1084,1.1062,1.108,1.1087,1.1041,1.1044,1.1046,1.1048,0,0,0.8969,0.9275,0.9294,0.9397,0.9624,0.9732,0.9852,1.0032,1.0108,1.0264,1.0372,1.0577,1.0632,1.0745,1.0856,1.0921,1.0939,1.0973,1.098,1.0963,1.1057,1.1014,1.1018,1.0999,1.1001,1.1002,1.1041,0,0.8991,0.9213,0.9359,0.9524,0.9651,0.9796,0.9901,1.0053,1.0173,1.0299,1.0432,1.0576,1.0636,1.0705,1.0776,1.0921,1.0961,1.092,1.1104,1.1108,1.1054,1.1027,1.0983,1.1012,1.1049,1.105,1.1051,0,0.9047,0.9197,0.9373,0.9586,0.9645,0.9737,0.9913,1.003,1.0205,1.0288,1.0411,1.0524,1.0659,1.0692,1.0881,1.085,1.0933,1.1015,1.102,1.1047,1.1081,1.1056,1.1025,1.103,1.1064,1.1063,1.1062,0,0.8955,0.9201,0.9339,0.9422,0.9673,0.9734,0.9842,1.0017,1.0115,1.0268,1.0334,1.0501,1.0594,1.0721,1.0876,1.0886,1.105,1.1096,1.1125,1.1121,1.1157,1.1153,1.1141,1.1203,1.1203,1.1203,1.1203,0,0.8966,0.9069,0.9301,0.9386,0.9505,0.9672,0.9787,0.9907,1.006,1.0172,1.0307,1.041,1.0606,1.0733,1.0855,1.0994,1.1034,1.1106,1.1138,1.1097,1.1087,1.1157,1.116,1.1204,1.1204,1.1204,1.1203,0,0.8886,0.9044,0.9205,0.9427,0.9486,0.9564,0.9757,0.9845,0.997,1.011,1.0153,1.0351,1.0507,1.0672,1.0885,1.0967,1.1101,1.1144,1.1042,1.106,1.1081,1.1077,1.1116,1.1131,1.1177,1.1177,1.1176,0,0.8884,0.8967,0.9197,0.9281,0.9384,0.9517,0.9617,0.9784,0.9883,1.0086,1.015,1.0316,1.0458,1.07,1.0864,1.1027,1.1077,1.1079,1.1103,1.1058,1.1081,1.1075,1.1085,1.1073,1.1071,1.107,1.1069,0,0.8866,0.8939,0.9077,0.9242,0.9356,0.9495,0.9639,0.9699,0.9895,0.9999,1.0159,1.0268,1.0483,1.0647,1.0829,1.0943,1.1039,1.1059,1.1076,1.1036,1.0974,1.1011,1.1025,1.1059,1.106,1.1061,1.1062,1.1062,0.8828,0.8908,0.9082,0.9231,0.9355,0.9485,0.9579,0.9715,0.9851,1.0038,1.0128,1.0288,1.046,1.0715,1.0825,1.0953,1.0982,1.1004,1.1011,1.1015,1.1005,1.0949,1.0987,1.0987,1.0988,1.0988,1.0989,0,0.8819,0.8937,0.9071,0.9267,0.9383,0.946,0.9622,0.9716,0.9854,1.0005,1.0141,1.0324,1.0483,1.0657,1.0826,1.0895,1.0944,1.0934,1.0933,1.0958,1.0968,1.0939,1.0892,1.0892,1.0892,1.0892,1.0892,1.0892,0.8828,0.8967,0.906,0.9263,0.9382,0.9538,0.9624,0.9745,0.9867,1.0065,1.0196,1.0307,1.0469,1.065,1.0799,1.0846,1.0904,1.0882,1.0942,1.0949,1.0957,1.0964,1.0938,1.0892,1.0892,1.0922,1.0922,1.0922]}]]